STARLINK-32238, 61661

Orbit data source: Space-Track

STARLINK-32238, 61661 is a payload satellite owned by SpaceX/Seattle (US) in LEO that was launched on Sat, 26 Oct 2024 UTC via an FALCON 9 launch vehicle from the Air Force Eastern Test Range (AFETR). Payloads include a variety of satellites, spacecraft, and rockets equipped with specific instruments for various scientific and technological missions. These include communications satellites like Starlink; space stations such as the ISS; scientific satellites like the Hubble; Earth observation satellites from companies like Planet Labs, Umbra, and HawkEye 360; GPS; miniature CubeSats for education and research; and military/defense satellites.

Loading next visibility...
STARLINK-32238 details
Identifier
61661, 2024-193A
Orbit
LEO
Last TLE update14 hours ago
Origin
Flag of USSpaceX/Seattle (US)
ManufacturerSpaceX/Seattle
MissionOperational spacecraft
Bus & MotorSTARLINK V2M, Unknown motor
Mass730 kg wet, ~700 kg dry
Launch date (UTC)
2024-10-26 (2 months ago)
Launch vehicle
FALCON 9
Launch site
Air Force Eastern Test Range (AFETR)
Object type
Payload
Rocket body
Debris
Shape & HBRUnknown
Radar Cross SectionLarge (>1 m²)

Expand to show TLE details & history

TLE from 14 hours ago
0 STARLINK-32238
1 61661U 24193A   24361.29567953  .00000560  00000-0  23991-4 0  9990
2 61661  53.1615 329.6450 0001407  97.0347 263.0818 15.39607528  9377
Epoch: 2024-12-26T07:05Z
Definitive object data (Epoch: 2024-12-26T07:05:46.711Z)
Latitude-0.00001°
Longitude127.92324°
Altitude448.288 km
Speed7.644 km/s
True Right ascension21h 58m 34s
True Declination0° 00' 00"
Sunlit
Object was in daylight at TLE epoch
Visualization TLE readout
Latitude23.83763°
Longitude144.36206°
Altitude447.762 km
Speed7.647 km/s
Apparent Right ascension02h 30m 46s
Apparent Declination-19° 36' 30"
Sunlit
Object is in daylight
Visualization observer readout
Local Sidereal Time20:37:51
Azimuth106.342° ESE
Elevation-11.128°
Doppler factor1
Orbital elements
Apogee altitude448.487 km
Perigee altitude446.566 km
Semi-major axis6,825.663 km
Eccentricity0.0001407
Inclination53.1615°
RAAN329.645°
Arg. of periapsis97.0347°
True anomaly263.06579°
Mean anomaly263.0818°
Eccentric anomaly263.0738°
Mean motion3.8488 °/min
BSTAR0.000023991
Orbital period93.54 mins
Loading maneuver chart data...
Loading historical data...
Loading historical data...
Loading historical data...
Loading historical data...
Loading historical data...
Loading historical data...
Loading historical data...

STARLINK-32238 Visibility forecast

Observer location: undefined°, undefined

Span
Click to sort rows by Start time (UTC) header in descending order
Start Az.
Max El. time (UTC)
Max El. Az.
Max El.
End time (UTC)
End Az.
6 mins2024-12-27 00:23:54.238Z205.161° SW2024-12-27 00:26:54.238Z126.056° SE34.77°2024-12-27 00:29:54.238Z62.567° ENE
4 mins2024-12-27 02:02:54.238Z298.695° NW2024-12-27 02:03:54.238Z324.14° NNW22.394°2024-12-27 02:06:54.238Z27.125° NE
5 mins2024-12-27 06:56:54.238Z331.294° NNW2024-12-27 06:58:54.238Z20.702° NNE31.161°2024-12-27 07:01:54.238Z99.62° ESE
4 mins2024-12-27 08:34:54.238Z264.532° W2024-12-27 08:35:54.238Z241.152° WSW21.238°2024-12-27 08:38:54.238Z177.57° S
|